• Join FlightAware (Why Join?)
  • Login
  • US Flag 
04:32AM EDT


 

Airport Tracker/Info


-or-


 

Live Flight TrackerFlight Track Log ✈ KFS724 ✈ 30-May-2013 ✈ KLRD - KELP

Flight Track Log - Related Links

Times and Time Zones

All times are in EDT time to prevent confusion due to time zone crossing. See the KFS724 flight status page for this flight to view local times or setup timezone preferences in your user account.

Time Position Orientation Groundspeed Altitude Reporting Facility
EDT Latitude Longitude Course Direction KTS MPH feet Rate Location/Type
08:16PM 27.4900 -99.4244 327° Northwest 209 241 36,000  Level Houston Center
08:17PM 27.5000 -99.3561 81° East 253 291 36,000  Level Houston Center
08:18PM 27.5700 -99.3767 345° North 276 318 36,000 -13,020 Level Houston Center
08:19PM 27.8486 -99.6739 326° Northwest  Level FlightAware Approximate
08:19PM 27.6350 -99.4292 324° Northwest 281 323 9,200  Level Houston Center
08:20PM 27.9356 -99.7391 327° Northwest  Level FlightAware Approximate
08:20PM 27.7092 -99.4786 329° Northwest 293 337 11,400  Level Houston Center
08:21PM 28.0226 -99.8044 327° Northwest  Level FlightAware Approximate
08:21PM 27.7853 -99.5428 323° Northwest 329 379 14,800  Level Houston Center
08:22PM 27.8597 -99.6061 323° Northwest 332 382 16,000 1,980 Climbing Houston Center
08:23PM 27.9614 -99.6894 324° Northwest 370 426 19,000 1,980 Climbing Houston Center
08:24PM 28.0497 -99.7569 326° Northwest 379 436 20,100 1,260 Climbing Houston Center
08:25PM 28.1425 -99.8275 326° Northwest 395 455 21,700 1,800 Climbing Houston Center
08:26PM 28.2356 -99.8964 327° Northwest 399 459 23,900 1,740 Climbing Houston Center
08:27PM 28.3247 -99.9658 326° Northwest 391 450 25,400 1,140 Climbing Houston Center
08:28PM 28.4172 -100.0364 326° Northwest 398 458 26,300 960 Climbing Houston Center
08:29PM 28.5358 -100.1256 327° Northwest 419 482 27,500 1,200 Climbing Houston Center
08:30PM 28.6258 -100.1947 326° Northwest 424 488 28,800 1,200 Climbing Houston Center
08:31PM 28.7250 -100.2672 327° Northwest 423 487 30,000 960 Climbing Houston Center
08:33PM 28.8453 -100.3617 325° Northwest 434 499 30,900 960 Climbing Houston Center
08:34PM 28.9472 -100.4422 325° Northwest 442 509 32,000 1,200 Climbing Houston Center
08:35PM 29.0478 -100.5222 325° Northwest 441 507 33,400 1,200 Climbing Houston Center
08:36PM 29.1469 -100.6003 325° Northwest 435 501 34,500 960 Climbing Houston Center
08:37PM 29.2450 -100.6775 326° Northwest 429 494 35,500 720 Climbing Houston Center
08:38PM 29.3436 -100.7544 326° Northwest 428 493 36,000 240 Climbing Houston Center
08:39PM 29.4236 -100.8544 313° West 427 491 36,000  Level Houston Center
08:40PM 29.5161 -100.9797 310° West 426 490 36,000  Level Houston Center
08:41PM 29.5919 -101.0808 311° West 420 483 36,000 -60 Level Houston Center
08:42PM 29.6644 -101.1817 310° West 412 474 35,900 -60 Descending Houston Center
08:43PM 29.7381 -101.2819 310° West 409 471 35,900  Level Houston Center
08:44PM 29.8136 -101.3853 310° West 406 467 36,000  Climbing Houston Center
08:45PM 29.8822 -101.4803 310° West 404 465 36,000 -60 Level Houston Center
08:46PM 29.9486 -101.6133 300° West 414 476 35,900 -60 Descending Houston Center
08:47PM 29.9947 -101.7269 295° West 395 455 35,900  Level Houston Center
08:48PM 30.0444 -101.8419 297° West 399 459 35,900  Level Houston Center
08:49PM 30.0972 -101.9669 296° West 413 475 36,000  Climbing Houston Center
08:50PM 30.1472 -102.0858 296° West 412 474 36,000 -60 Level Houston Center
08:51PM 30.1978 -102.2050 296° West 413 475 35,900  Descending Houston Center
08:52PM 30.2478 -102.3253 296° West 414 476 36,000  Climbing Houston Center
08:53PM 30.3081 -102.4675 296° West 411 473 35,900 -120 Descending Houston Center
08:54PM 30.3183 -102.4886 299° West 412 474 35,900 60 Level Albuquerque Center
08:55PM 30.3667 -102.6075 295° West 410 472 36,000  Climbing Albuquerque Center
08:56PM 30.4161 -102.7272 296° West 409 471 35,900 -60 Descending Albuquerque Center
08:57PM 30.4756 -102.8703 296° West 410 472 35,900  Level Albuquerque Center
08:58PM 30.5250 -102.9883 296° West 408 470 35,900  Level Albuquerque Center
08:59PM 30.5733 -103.1072 295° West 407 468 36,000  Climbing Albuquerque Center
09:00PM 30.6211 -103.2253 295° West 406 467 35,900 -60 Descending Albuquerque Center
09:01PM 30.6714 -103.3450 296° West 410 472 35,900  Level Albuquerque Center
09:02PM 30.7203 -103.4650 295° West 411 473 36,000  Climbing Albuquerque Center
09:03PM 30.7692 -103.5856 295° West 412 474 36,000  Level Albuquerque Center
09:04PM 30.8175 -103.7064 295° West 412 474 36,000 -60 Level Albuquerque Center
09:05PM 30.8739 -103.8461 295° West 414 476 35,900  Descending Albuquerque Center
09:06PM 30.9214 -103.9664 295° West 413 475 36,000  Climbing Albuquerque Center
09:07PM 30.9697 -104.0858 295° West 410 472 36,000  Level Albuquerque Center
09:08PM 31.0172 -104.2039 295° West 407 468 36,000 -60 Level Albuquerque Center
09:09PM 31.0639 -104.3242 294° West 408 470 35,900 -60 Descending Albuquerque Center
09:10PM 31.1108 -104.4431 295° West 407 468 35,900 -1,200 Level Albuquerque Center
09:11PM 31.1686 -104.5892 295° West 413 475 33,500 -2,460 Descending Albuquerque Center
09:12PM 31.2186 -104.7167 295° West 429 494 30,900 -2,700 Descending Albuquerque Center
09:13PM 31.2669 -104.8419 294° West 430 495 28,000 -2,940 Descending Albuquerque Center
09:14PM 31.3153 -104.9636 295° West 421 484 24,900 -3,000 Descending Albuquerque Center
09:15PM 31.3625 -105.0867 294° West 419 482 21,900 -3,060 Descending Albuquerque Center
09:16PM 31.4075 -105.2025 294° West 401 461 18,700 -3,180 Descending Albuquerque Center
09:17PM 31.4583 -105.3383 294° West 384 442 15,400 -3,000 Descending Albuquerque Center
09:18PM 31.4986 -105.4431 294° West 356 410 12,600 -1,740 Descending Albuquerque Center
09:19PM 31.5358 -105.5400 294° West 329 379 11,900 -480 Descending Albuquerque Center
09:20PM 31.5483 -105.5728 294° West 296 341 12,000  Climbing Albuquerque Center
09:20PM 31.5683 -105.6256 294° West 292 336 11,900  Descending Albuquerque Center
09:21PM 31.5900 -105.6794 295° West 288 331 12,000  Climbing Albuquerque Center
09:21PM 31.6006 -105.7142 290° West 297 342 11,900 -360 Descending Albuquerque Center
09:22PM 31.6181 -105.7622 293° West 298 343 11,700 -900 Descending Albuquerque Center
09:22PM 31.6339 -105.8019 295° West 295 339 11,000 -1,200 Descending Albuquerque Center
09:23PM 31.6467 -105.8347 295° West 290 334 10,600 -1,620 Descending Albuquerque Center
09:23PM 31.6681 -105.8803 299° West 273 314 9,400 -1,920 Descending Albuquerque Center
09:24PM 31.6914 -105.9033 320° Northwest 277 319 8,700 -1,500 Descending Albuquerque Center
09:24PM 31.7308 -105.9572 311° West 271 312 7,900 -420 Descending Albuquerque Center
09:25PM 31.7767 -106.0094 316° Northwest 234 269 8,000  Climbing Albuquerque Center
09:26PM 31.8175 -106.0586 314° West 214 246 7,900 -60 Descending Albuquerque Center
09:27PM 31.8564 -106.1044 315° West 201 231 7,900 -660 Level Albuquerque Center
09:28PM 31.8939 -106.1531 312° West 201 231 6,600 -1,020 Descending Albuquerque Center
09:29PM 31.9108 -106.1781 309° West 205 236 6,500 -120 Descending Albuquerque Center
09:29PM 31.9158 -106.2136 279° West 195 224 6,500 -240 Level Albuquerque Center
09:30PM 31.9106 -106.2358 254° West 181 208 6,300 -540 Descending Albuquerque Center
09:31PM 31.9014 -106.2586 245° Southwest 163 188 6,000 -480 Descending Albuquerque Center
09:31PM 31.8867 -106.2792 230° Southwest 134 154 5,800 -540 Descending Albuquerque Center
09:32PM 31.8711 -106.3008 230° Southwest 140 161 5,500 -720 Descending Albuquerque Center
09:32PM 31.8628 -106.3128 231° Southwest 140 161 5,200 -900 Descending Albuquerque Center
09:33PM 31.8447 -106.3386 231° Southwest 147 169 4,600 -840 Descending Albuquerque Center
09:33PM 31.8358 -106.3519 232° Southwest 145 167 4,400 -720 Descending Albuquerque Center
09:34PM 31.8189 -106.3736 227° Southwest 139 160 3,900 -720 Descending Albuquerque Center
09:36PM 31.8072 -106.3764 225° Southwest  Level Estimated
09:43PM 31.8072 -106.3764 225° Southwest  Level Estimated
09:44PM 31.8072 -106.3764 225° Southwest  Level Estimated
09:45PM 31.8072 -106.3764 225° Southwest  Level Estimated
09:46PM 31.8072 -106.3764 225° Southwest  Level Estimated